Weather History for KETH - February, 2014

Change the Weather History Date:

Wednesday, February 26, 2014

  Actual Average Record
Temperature  
Mean Temperature 10 °F -  
Max Temperature 24 °F 36 °F 63 °F (1958)
Min Temperature -4 °F 17 °F -14 °F (2015)
Degree Days  
Heating Degree Days 55    
Moisture  
Dew Point -1 °F    
Average Humidity 67    
Maximum Humidity 85    
Minimum Humidity 50    
Precipitation  
Precipitation 0.00 in - - ()
Sea Level Pressure  
Sea Level Pressure 29.98 in    
Wind  
Wind Speed 15 mph (West)    
Max Wind Speed 32 mph    
Max Gust Speed 41 mph    
Visibility 10 miles    
Events Snow    
Averages and records for this station are not official NWS values.
T = Trace of Precipitation, MM = Missing Value Source: NWS Daily Summary

Daily Weather History Graph

Daily Weather History Graph

Search for Another Location

Airport or City:

Trip Planner

Search our weather history database for the weather conditions in past years. The results will help you decide how hot, cold, wet, or windy it might be!

Date:

Astronomy

Feb. 26, 2014 Rise Set
Actual Time 7:10 AM CST 6:08 PM CST
Civil Twilight 6:40 AM CST 6:38 PM CST
Nautical Twilight 6:05 AM CST 7:13 PM CST
Astronomical Twilight 5:31 AM CST 7:47 PM CST
Moon 5:03 AM CST (2/26) 3:18 PM CST (2/26)
Length of Visible Light 11h 58m
Length of Day
10h 58m
Waning Crescent, 10% of the Moon is Illuminated
Feb 26
Waning Crescent
Mar 1
New
Mar 8
First Quarter
Mar 16
Full
Mar 23
Last Quarter

Hourly Weather History & Observations

Time (CST) Temp. Windchill Dew Point Humidity Pressure Visibility Wind Dir Wind Speed Gust Speed Precip Events Conditions
12:14 AM -2.2 °F -18.0 °F -7.6 °F 78% 30.37 in 10.0 mi WSW 9.2 mph - N/A   Clear
12:34 AM -2.2 °F -18.0 °F -7.6 °F 78% 30.36 in 10.0 mi WSW 9.2 mph - N/A   Clear
12:54 AM -2.2 °F -18.0 °F -7.6 °F 78% 30.35 in 10.0 mi WSW 9.2 mph - N/A   Clear
1:14 AM -2.2 °F -18.9 °F -7.6 °F 78% 30.34 in 10.0 mi WSW 10.4 mph - N/A   Clear
1:34 AM -2.2 °F -18.0 °F -7.6 °F 78% 30.32 in 10.0 mi WSW 9.2 mph - N/A   Clear
1:54 AM -2.2 °F -16.8 °F -9.4 °F 71% 30.31 in 10.0 mi WSW 8.1 mph - N/A   Clear
2:14 AM -2.2 °F -16.8 °F -9.4 °F 71% 30.29 in 10.0 mi WSW 8.1 mph - N/A   Clear
2:34 AM -2.2 °F -14.2 °F -9.4 °F 71% 30.27 in 10.0 mi WSW 5.8 mph - N/A   Clear
2:54 AM -2.2 °F -15.6 °F -9.4 °F 71% 30.26 in 10.0 mi WSW 6.9 mph - N/A   Clear
3:14 AM -2.2 °F -16.8 °F -9.4 °F 71% 30.23 in 10.0 mi WSW 8.1 mph - N/A   Clear
3:34 AM -2.2 °F -16.8 °F -9.4 °F 71% 30.21 in 10.0 mi SW 8.1 mph - N/A   Clear
3:54 AM -2.2 °F -18.9 °F -9.4 °F 71% 30.19 in 10.0 mi SW 10.4 mph - N/A   Clear
4:14 AM -2.2 °F -18.9 °F -9.4 °F 71% 30.17 in 10.0 mi SW 10.4 mph - N/A   Clear
4:34 AM -0.4 °F -18.4 °F -9.4 °F 66% 30.15 in 10.0 mi SW 12.7 mph - N/A   Clear
4:54 AM -0.4 °F -16.7 °F -9.4 °F 66% 30.13 in 10.0 mi SW 10.4 mph - N/A   Clear
5:14 AM -0.4 °F -16.7 °F -7.6 °F 72% 30.11 in 10.0 mi WSW 10.4 mph - N/A   Clear
5:34 AM 1.4 °F -15.3 °F -7.6 °F 66% 30.09 in 10.0 mi SW 11.5 mph - N/A   Scattered Clouds
5:54 AM 1.4 °F -16.1 °F -5.8 °F 72% 30.07 in 10.0 mi WSW 12.7 mph - N/A   Scattered Clouds
6:14 AM 3.2 °F -13.9 °F -4.0 °F 72% 30.05 in 10.0 mi SW 12.7 mph - N/A   Scattered Clouds
6:34 AM 3.2 °F -13.9 °F -4.0 °F 72% 30.03 in 10.0 mi SW 12.7 mph - N/A   Scattered Clouds
6:54 AM 3.2 °F -13.9 °F -4.0 °F 72% 30.01 in 10.0 mi SW 12.7 mph - N/A   Clear
7:14 AM 3.2 °F -13.9 °F -2.2 °F 78% 29.99 in 10.0 mi WSW 12.7 mph - N/A   Clear
7:34 AM 5.0 °F -13.0 °F -2.2 °F 72% 29.97 in 10.0 mi WSW 15.0 mph - N/A   Clear
7:54 AM 6.8 °F -11.3 °F -2.2 °F 67% 29.95 in 10.0 mi WSW 16.1 mph 19.6 mph N/A   Clear
8:14 AM 8.6 °F -10.0 °F -0.4 °F 67% 29.93 in 10.0 mi WSW 18.4 mph - N/A   Clear
8:34 AM 8.6 °F -9.5 °F -0.4 °F 67% 29.92 in 10.0 mi WSW 17.3 mph - N/A   Mostly Cloudy
8:54 AM 8.6 °F -11.9 °F -0.4 °F 67% 29.89 in 10.0 mi WSW 23.0 mph - N/A   Scattered Clouds
9:14 AM 10.4 °F -8.6 °F 1.4 °F 67% 29.87 in 10.0 mi WSW 20.7 mph 28.8 mph N/A   Scattered Clouds
9:34 AM 12.2 °F -5.3 °F 1.4 °F 62% 29.85 in 10.0 mi WSW 18.4 mph 28.8 mph N/A   Scattered Clouds
9:54 AM 12.2 °F -6.3 °F 1.4 °F 62% 29.84 in 10.0 mi WSW 20.7 mph 27.6 mph N/A   Scattered Clouds
10:14 AM 12.2 °F -5.3 °F 1.4 °F 62% 29.83 in 10.0 mi WSW 18.4 mph 28.8 mph N/A   Scattered Clouds
10:34 AM 15.8 °F 1.4 °F 5.0 °F 62% 29.81 in 10.0 mi WSW 13.8 mph 20.7 mph N/A   Clear
10:54 AM 15.8 °F 0.3 °F 3.2 °F 58% 29.80 in 10.0 mi West 16.1 mph 25.3 mph N/A   Clear
11:14 AM 17.6 °F 2.2 °F 5.0 °F 58% 29.79 in 10.0 mi West 17.3 mph 28.8 mph N/A   Clear
11:34 AM 17.6 °F 0.1 °F 5.0 °F 58% 29.77 in 10.0 mi West 23.0 mph 28.8 mph N/A   Clear
11:54 AM 19.4 °F 2.8 °F 5.0 °F 54% 29.76 in 10.0 mi West 21.9 mph 34.5 mph N/A   Scattered Clouds
12:14 PM 21.2 °F 5.6 °F 6.8 °F 54% 29.74 in 10.0 mi West 20.7 mph 34.5 mph N/A   Scattered Clouds
12:34 PM 21.2 °F 5.6 °F 6.8 °F 54% 29.73 in 10.0 mi West 20.7 mph 31.1 mph N/A   Scattered Clouds
12:54 PM 23.0 °F 5.7 °F 6.8 °F 50% 29.73 in 10.0 mi West 28.8 mph 39.1 mph N/A   Scattered Clouds
1:14 PM 23.0 °F 5.4 °F 8.6 °F 54% 29.73 in 10.0 mi West 29.9 mph 41.4 mph N/A   Scattered Clouds
1:34 PM 24.8 °F 7.3 °F 10.4 °F 54% 29.72 in 10.0 mi WNW 32.2 mph 40.3 mph N/A   Scattered Clouds
1:54 PM 23.0 °F 5.7 °F 8.6 °F 54% 29.72 in 10.0 mi WNW 28.8 mph 41.4 mph N/A   Clear
2:14 PM 21.2 °F 3.3 °F 8.6 °F 58% 29.73 in 10.0 mi NW 28.8 mph 36.8 mph N/A   Clear
2:34 PM 21.2 °F 2.4 °F 10.4 °F 63% 29.73 in 10.0 mi NW 32.2 mph 40.3 mph N/A   Clear
2:54 PM 21.2 °F 3.0 °F 10.4 °F 63% 29.74 in 10.0 mi WNW 29.9 mph 38.0 mph N/A   Scattered Clouds
3:14 PM 21.2 °F 3.9 °F 10.4 °F 63% 29.75 in 10.0 mi NW 26.5 mph 33.4 mph N/A   Scattered Clouds
3:34 PM 19.4 °F 0.8 °F 8.6 °F 63% 29.76 in 10.0 mi WNW 28.8 mph 38.0 mph N/A   Scattered Clouds
3:54 PM 19.4 °F 2.1 °F 8.6 °F 63% 29.78 in 10.0 mi NW 24.2 mph 34.5 mph N/A   Scattered Clouds
4:14 PM 17.6 °F -1.3 °F 8.6 °F 68% 29.80 in 10.0 mi NW 27.6 mph 34.5 mph N/A   Clear
4:34 PM 17.6 °F -1.6 °F 6.8 °F 63% 29.81 in 10.0 mi NW 28.8 mph 39.1 mph N/A   Scattered Clouds
4:54 PM 15.8 °F -3.7 °F 3.2 °F 58% 29.82 in 10.0 mi NW 27.6 mph 36.8 mph N/A   Scattered Clouds
5:14 PM 15.8 °F -3.1 °F 3.2 °F 58% 29.83 in 10.0 mi NW 25.3 mph 35.7 mph N/A   Clear
5:34 PM 15.8 °F -3.1 °F 5.0 °F 62% 29.85 in 10.0 mi NW 25.3 mph 33.4 mph N/A   Mostly Cloudy
5:54 PM 14.0 °F -5.1 °F 6.8 °F 73% 29.87 in 10.0 mi NNW 24.2 mph 34.5 mph N/A   Scattered Clouds
6:14 PM 12.2 °F -8.6 °F 6.8 °F 79% 29.89 in 7.0 mi NW 27.6 mph 38.0 mph N/A Snow Light Snow
6:34 PM 12.2 °F -4.8 °F 5.0 °F 73% 29.91 in 10.0 mi NNW 17.3 mph 25.3 mph N/A   Mostly Cloudy
6:54 PM 8.6 °F -11.4 °F 3.2 °F 79% 29.94 in 1.8 mi NNW 21.9 mph 29.9 mph N/A Snow Light Snow
7:14 PM 8.6 °F -11.0 °F 3.2 °F 79% 29.95 in 3.0 mi NNW 20.7 mph 31.1 mph N/A   Haze
7:34 PM 6.8 °F -13.4 °F 3.2 °F 85% 29.97 in 5.0 mi NNW 20.7 mph 29.9 mph N/A   Overcast
7:54 PM 6.8 °F -12.4 °F -0.4 °F 72% 29.98 in 10.0 mi NNW 18.4 mph 25.3 mph N/A   Scattered Clouds
8:14 PM 3.2 °F -18.1 °F -4.0 °F 72% 29.99 in 10.0 mi NNW 20.7 mph 31.1 mph N/A   Clear
8:34 PM 3.2 °F -17.6 °F -5.8 °F 66% 30.01 in 10.0 mi NNW 19.6 mph 27.6 mph N/A   Clear
8:54 PM 3.2 °F -17.6 °F -4.0 °F 72% 30.02 in 10.0 mi NNW 19.6 mph 24.2 mph N/A   Clear
9:14 PM 1.4 °F -19.9 °F -5.8 °F 72% 30.03 in 10.0 mi NNW 19.6 mph 25.3 mph N/A   Clear
9:34 PM -0.4 °F -22.3 °F -7.6 °F 72% 30.05 in 10.0 mi NNW 19.6 mph 34.5 mph N/A   Clear
9:54 PM -0.4 °F -21.7 °F -7.6 °F 72% 30.06 in 10.0 mi NNW 18.4 mph 24.2 mph N/A   Clear
10:14 PM -0.4 °F -17.6 °F -9.4 °F 66% 30.07 in 10.0 mi NNW 11.5 mph 20.7 mph N/A   Clear
10:34 PM -2.2 °F -23.5 °F -11.2 °F 66% 30.08 in 10.0 mi NNW 17.3 mph 25.3 mph N/A   Clear
10:54 PM -2.2 °F -21.5 °F -11.2 °F 66% 30.09 in 10.0 mi NNW 13.8 mph 20.7 mph N/A   Clear
11:14 PM -2.2 °F -22.2 °F -11.2 °F 66% 30.09 in 10.0 mi NNW 15.0 mph 20.7 mph N/A   Clear
11:34 PM -4.0 °F -23.7 °F -11.2 °F 71% 30.10 in 10.0 mi NNW 13.8 mph 20.7 mph N/A   Clear
11:54 PM -4.0 °F -24.5 °F -13.0 °F 65% 30.11 in 10.0 mi NNW 15.0 mph 21.9 mph N/A   Clear